Regional Weather Roundup
Issued by NWS Kansas City/Pleasant Hill, MO

Home | Current Version | Previous Version | Text Only | Print | Product List | Glossary On
Versions: 1 2 3 4 5 6 7 8 9 10 11 12 13 14 15 16 17 18 19 20 21 22 23 24 25 26 27 28 29 30 31 32 33 34 35 36 37 38 39 40 41 42 43 44 45 46 47 48 49 50
848
ASUS43 KEAX 300710
RWREAX

WEATHER ROUNDUP FOR EASTERN KANSAS AND NORTHWEST MISSOURI
NATIONAL WEATHER SERVICE KANSAS CITY/PLEASANT HILL MO
200 AM CDT SAT JUL 30 2016

KSZ040-057-103>105-MOZ028-029-037-043-300800-
...KANSAS CITY METROPOLITAN AREA...

CITY           SKY/WX    TMP DP  RH WIND       PRES   REMARKS
K.C. INTL      CLEAR     66  60  81 NE6       30.02F
K.C. DOWNTOWN  CLEAR     70  62  76 NE5       30.00F
LEES SUMMIT    CLEAR     69  63  81 NE6       30.01F
OLATHE - IXD   CLEAR     68  64  87 N5        30.02F
OLATHE - OJC   CLEAR     69  62  78 N6        30.01F
LAWRENCE       PTCLDY    64  62  93 CALM      30.01F

$$

MOZ001>008-011>017-020>025-030>033-038>040-044>046-053-054-300800-
...NORTHERN AND CENTRAL MISSOURI...

CITY           SKY/WX    TMP DP  RH WIND       PRES   REMARKS
ST. JOSEPH     CLEAR     64  61  90 NW3       30.02S
MOSBY          SUNNY     64  63  94 CALM      30.01F
WHITEMAN AFB   CLEAR     69  68  99 VRB2      29.99S
CLINTON        PTCLDY    68  68 100 CALM      30.00S
SEDALIA        CLEAR     69  65  86 W3        30.00F
WARSAW         NOT AVBL
CHILLICOTHE      N/A     64  62  93 CALM      30.01F
KIRKSVILLE     CLEAR     62  60  93 W3        30.00S

$$

MOZ041-047>049-056>058-063>065-088>090-097-300800-
...EASTERN AND SOUTHERN MISSOURI...

CITY           SKY/WX    TMP DP  RH WIND       PRES   REMARKS
ST. LOUIS INTL PTCLDY    74  67  78 CALM      29.96S
SPIRIT OF STL  CLEAR     70  69  97 CALM      29.94F
COLUMBIA       CLEAR     69  65  86 CALM      29.99S
JEFFERSON CITY CLEAR     68  66  93 CALM      29.97F
ROLLA          CLEAR     67  65  93 CALM      29.97F
OSAGE BEACH    PTCLDY    69  68  96 CALM      30.00F
SPRINGFIELD    CLEAR     71  67  87 CALM      30.00F
BRANSON        MOCLDY    70  70 100 CALM      30.01F FOG
JOPLIN         CLEAR     70  69  97 CALM      30.00S
WEST PLAINS    CLOUDY    70  68  93 SW3       30.02S FOG

$$

IAZ060-094-KSZ022-034>040-054-083-096-NEZ052-066-093-300800-
...KANSAS...SOUTHEAST NEBRASKA AND IOWA...

CITY           SKY/WX    TMP DP  RH WIND       PRES   REMARKS
TOPEKA         CLEAR     68  65  90 CALM      30.01F
MANHATTAN      CLOUDY    68  65  90 CALM      30.01F
EMPORIA        CLEAR     70  67  90 CALM      30.02R
CHANUTE        CLEAR     71  69  93 CALM      29.99F
WICHITA        CLOUDY    73  69  87 S5        30.01F
OMAHA          MOCLDY    66  61  84 CALM      30.03F
LINCOLN        CLOUDY    68  62  81 SE3       30.04F
FALLS CITY     CLEAR     65  63  93 CALM      30.03S
LAMONI         PTCLDY    62  62 100 NW5       30.02S
DES MOINES     MOCLDY    69  65  86 N3        29.99F

$$





USA.gov is the U.S. government's official web portal to all federal, state and local government web resources and services.